Overview Statistics Trail Chart Weather Telemetry Raw packets
 

This is the latest recevied weather packets stored in our database for station/object SP6FIG. If no packets are shown the sender has not sent any weather packets the latest 10 day(s).

<< 9 10 11 12 13 14 15 >>
Time Temp. Humidity Pressure Rain* Wind** Luminosity Snow
1777587713 24.44° C 32% 979.7 hPa - - - -
1777587113 24.44° C 32% 979.8 hPa - - - -
1777586513 24.44° C 32% 979.7 hPa - - - -
1777585913 24.44° C 32% 979.6 hPa - - - -
1777585313 24.44° C 32% 979.7 hPa - - - -
1777584713 24.44° C 32% 979.5 hPa - - - -
1777584113 24.44° C 32% 979.6 hPa - - - -
1777583513 24.44° C 32% 979.6 hPa - - - -
1777582913 24.44° C 32% 979.7 hPa - - - -
1777582313 24.44° C 33% 979.6 hPa - - - -
1777581713 24.44° C 33% 979.7 hPa - - - -
1777581113 24.44° C 33% 979.8 hPa - - - -
1777580513 24.44° C 34% 979.8 hPa - - - -
1777579913 22.78° C 36% 979.8 hPa - - - -
1777579313 23.33° C 34% 979.8 hPa - - - -
1777578713 22.78° C 36% 979.8 hPa - - - -
1777578113 22.78° C 35% 979.7 hPa - - - -
1777577513 22.78° C 35% 979.7 hPa - - - -
1777576913 22.22° C 35% 979.7 hPa - - - -
1777576313 22.22° C 35% 979.7 hPa - - - -
1777575713 22.78° C 35% 979.6 hPa - - - -
1777575113 22.78° C 35% 979.5 hPa - - - -
1777574513 22.78° C 35% 979.5 hPa - - - -
1777573913 22.78° C 35% 979.5 hPa - - - -
1777573313 22.78° C 36% 979.5 hPa - - - -

* Rain since midnight (hover to see other rain measurements)
** Current wind speed in m/s (hover to see current wind gust speed)